Regional Weather Roundup
Issued by NWS

Home | Current Version | Previous Version | Graphics & Text | Print | Product List | Glossary On
Versions: 1 2 3 4 5 6 7 8 9 10 11 12 13 14 15 16 17 18 19 20 21 22 23 24 25 26 27 28
000
ASUS45 KCYS 282210
RWRWY

WYOMING REGIONAL WEATHER ROUNDUP
NATIONAL WEATHER SERVICE CHEYENNE WY
400 PM MDT SUN AUG 28 2016

NOTE:  "FAIR" INDICATES FEW OR NO CLOUDS BELOW 12,000 FEET
WITH NO SIGNIFICANT WEATHER AND/OR OBSTRUCTIONS TO VISIBILITY.

WYZ001-282300-
YELLOWSTONE NATIONAL PARK

CITY           SKY/WX    TMP DP  RH WIND       PRES   REMARKS
LK YELLOWSTONE   N/A     73  27  18 VRB6G21   30.35S
W YELLOWSTONE  NOT AVBL

$$
WYZ002>013-054>058-071-098>099-282300-
NORTHERN WYOMING

CITY           SKY/WX    TMP DP  RH WIND       PRES   REMARKS
JACKSON        SUNNY     81  27  13 W15G22    30.24F
CODY           FAIR      81  36  19 NE9G16    30.09F
GREYBULL       FAIR      87  26  11 S3        30.03F
WORLAND        FAIR      88  27  11 N7        30.04F
SHERIDAN       FAIR      90  35  14 NE7       30.03S
BUFFALO        FAIR      87  27  11 NE6       30.10F
GILLETTE       FAIR      90  25   9 N7        30.04F
HULETT         FAIR      90  32  12 SW7       30.04S
NEWCASTLE      FAIR      88  28  11 CALM      30.04F

$$
WYZ014>020-022>026-101>103-282300-
CENTRAL WYOMING

CITY           SKY/WX    TMP DP  RH WIND       PRES   REMARKS
BIG PINEY      FAIR      80  23  12 N8        30.28F
PINEDALE       FAIR      77  25  14 NW12G22   30.29S
DUBOIS         FAIR      77  21  12 W16G25    30.26S
LANDER         FAIR      86  28  12 NE6       30.11F
RIVERTON       FAIR      85  28  12 SE8       30.13F
CASPER         FAIR      87  26  11 W10G16    30.11F
DOUGLAS        FAIR      88  25  10 NW12      30.10F

$$
WYZ021-027>030-104>119-282300-
SOUTHERN WYOMING

CITY           SKY/WX    TMP DP  RH WIND       PRES   REMARKS
EVANSTON       FAIR      76  26  15 NW10      30.31S
FORT BRIDGER   CLEAR     82  25  12 NW13G23   30.31F
ROCK SPRINGS   FAIR      81  23  11 W17       30.25F
DIXON          FAIR      82  27  13 SW7       30.26F
RAWLINS        FAIR      82  21  10 W13G26    30.24F
SARATOGA       FAIR      79  27  14 W8G16     30.28S
LARAMIE        FAIR      78  26  14 N9        30.26F
CHEYENNE       FAIR      80  32  17 SE6       30.19S
TORRINGTON     FAIR      87  36  16 SE16G24   30.04S
PINE BLUFFS    MOCLDY    77  43  29 MISG      30.16R

$$




USA.gov is the U.S. government's official web portal to all federal, state and local government web resources and services.